| time (UTC) | temp C | wind direction | speed KPH | gust KPH | rain 1hr cm | rain 24hr cm | rain mn cm | humidity % | barometer mb |
| 20260507044423 | 8 | 126 | 0.0 | 0.0 | 0.00 | 1.80 | 0.00 | 88 | 1012.1 |
| 20260507043923 | 8 | 126 | 0.0 | 0.0 | 0.00 | 1.80 | 0.00 | 88 | 1012.0 |
| 20260507043423 | 8 | 126 | 0.0 | 0.0 | 0.00 | 1.80 | 0.00 | 88 | 1012.0 |
| 20260507042920 | 8 | 126 | 0.0 | 4.8 | 0.00 | 1.88 | 0.00 | 88 | 1012.0 |
| 20260507042423 | 8 | 126 | 4.8 | 4.8 | 0.00 | 1.96 | 0.00 | 88 | 1011.9 |
| 20260507041923 | 8 | 155 | 0.0 | 3.2 | 0.00 | 1.98 | 0.00 | 88 | 1011.9 |
| 20260507041420 | 8 | 155 | 0.0 | 6.4 | 0.00 | 1.98 | 0.00 | 87 | 1011.9 |
| 20260507040923 | 8 | 180 | 0.0 | 4.8 | 0.00 | 2.01 | 0.00 | 87 | 1011.9 |
| 20260507040423 | 8 | 180 | 0.0 | 0.0 | 0.00 | 2.11 | 0.00 | 87 | 1011.8 |
| 20260507035920 | 8 | 180 | 0.0 | 0.0 | 0.00 | 2.16 | 0.00 | 87 | 1011.9 |
| 20260507035420 | 8 | 180 | 0.0 | 0.0 | 0.00 | 2.18 | 0.00 | 87 | 1011.9 |
| 20260507034923 | 8 | 180 | 0.0 | 0.0 | 0.00 | 2.24 | 0.00 | 87 | 1011.7 |
| 20260507034420 | 8 | 180 | 0.0 | 0.0 | 0.00 | 2.26 | 0.00 | 87 | 1011.8 |
| 20260507033922 | 8 | 180 | 0.0 | 0.0 | 0.00 | 2.31 | 0.00 | 87 | 1011.6 |
| 20260507033423 | 8 | 180 | 0.0 | 0.0 | 0.00 | 2.36 | 0.00 | 87 | 1011.6 |
| 20260507032923 | 8 | 180 | 0.0 | 0.0 | 0.00 | 2.49 | 0.00 | 87 | 1011.7 |
| 20260507032422 | 8 | 180 | 0.0 | 0.0 | 0.00 | 2.59 | 0.00 | 87 | 1011.8 |
| 20260507031922 | 8 | 180 | 0.0 | 4.8 | 0.00 | 2.67 | 0.00 | 87 | 1011.8 |
| 20260507031422 | 8 | 180 | 3.2 | 6.4 | 0.00 | 2.72 | 0.00 | 87 | 1011.9 |
| 20260507030919 | 8 | 174 | 0.0 | 0.0 | 0.00 | 2.74 | 0.00 | 87 | 1011.8 |
| 20260507030422 | 8 | 174 | 0.0 | 0.0 | 0.00 | 2.77 | 0.00 | 87 | 1011.8 |
| 20260507025922 | 8 | 174 | 0.0 | 8.0 | 0.00 | 2.77 | 0.00 | 87 | 1011.9 |
| 20260507025422 | 8 | 175 | 0.0 | 0.0 | 0.00 | 2.77 | 0.00 | 87 | 1011.8 |
| 20260507024922 | 8 | 174 | 0.0 | 0.0 | 0.00 | 2.79 | 0.00 | 87 | 1011.9 |
| 20260507024422 | 8 | 174 | 0.0 | 3.2 | 0.00 | 2.79 | 0.00 | 87 | 1011.8 |
| 20260507023922 | 8 | 175 | 1.6 | 4.8 | 0.00 | 2.82 | 0.00 | 87 | 1011.8 |
| 20260507023422 | 8 | 162 | 1.6 | 8.0 | 0.00 | 2.90 | 0.00 | 87 | 1011.9 |
| 20260507022919 | 8 | 152 | 0.0 | 4.8 | 0.00 | 3.02 | 0.00 | 87 | 1012.0 |
| 20260507022419 | 8 | 192 | 3.2 | 6.4 | 0.00 | 3.17 | 0.00 | 87 | 1012.0 |
| 20260507021922 | 8 | 182 | 0.0 | 4.8 | 0.00 | 3.38 | 0.00 | 87 | 1011.9 |
| 20260507021422 | 8 | 182 | 0.0 | 8.0 | 0.00 | 3.61 | 0.00 | 87 | 1012.0 |
| 20260507020922 | 8 | 184 | 1.6 | 14.5 | 0.00 | 3.84 | 0.00 | 87 | 1012.0 |
| 20260507020422 | 8 | 196 | 4.8 | 11.3 | 0.00 | 4.04 | 0.00 | 87 | 1011.9 |
| 20260507015922 | 8 | 134 | 0.0 | 11.3 | 0.00 | 4.14 | 0.00 | 87 | 1012.0 |
| 20260507015422 | 8 | 146 | 8.0 | 11.3 | 0.00 | 4.29 | 0.00 | 87 | 1012.2 |
| 20260507014919 | 8 | 150 | 0.0 | 11.3 | 0.00 | 4.32 | 0.00 | 87 | 1011.9 |
| 20260507014422 | 9 | 207 | 3.2 | 11.3 | 0.00 | 4.37 | 0.00 | 87 | 1012.0 |
| 20260507013922 | 9 | 221 | 0.0 | 12.9 | 0.00 | 4.45 | 0.00 | 87 | 1012.0 |
| 20260507013422 | 9 | 180 | 1.6 | 8.0 | 0.00 | 4.45 | 0.00 | 86 | 1012.0 |
| 20260507012919 | 9 | 157 | 4.8 | 17.7 | 0.00 | 4.47 | 0.00 | 87 | 1012.0 |
| 20260507012422 | 9 | 155 | 9.7 | 12.9 | 0.00 | 4.47 | 0.00 | 86 | 1011.9 |
| 20260507011922 | 9 | 153 | 6.4 | 17.7 | 0.00 | 4.50 | 0.00 | 87 | 1012.0 |
| 20260507011422 | 9 | 109 | 6.4 | 22.5 | 0.00 | 4.52 | 0.00 | 87 | 1012.0 |
| 20260507010922 | 9 | 205 | 0.0 | 6.4 | 0.00 | 4.55 | 0.00 | 87 | 1012.0 |
| 20260507010422 | 9 | 119 | 3.2 | 19.3 | 0.00 | 4.55 | 0.00 | 87 | 1012.0 |
| 20260507005922 | 9 | 205 | 4.8 | 12.9 | 0.00 | 4.57 | 0.00 | 87 | 1012.0 |
| 20260507005422 | 9 | 159 | 12.9 | 19.3 | 0.00 | 4.60 | 0.00 | 87 | 1012.1 |
| 20260507004922 | 9 | 163 | 0.0 | 16.1 | 0.00 | 4.70 | 0.00 | 87 | 1012.0 |
| 20260507004422 | 9 | 202 | 4.8 | 16.1 | 0.00 | 4.98 | 0.00 | 86 | 1012.1 |
| 20260507003922 | 10 | 200 | 4.8 | 20.9 | 0.00 | 5.18 | 0.00 | 86 | 1011.9 |
| 20260507003422 | 10 | 155 | 6.4 | 19.3 | 0.00 | 5.41 | 0.00 | 86 | 1012.0 |
| 20260507002922 | 10 | 196 | 0.0 | 14.5 | 0.00 | 5.74 | 0.00 | 87 | 1012.2 |
| 20260507002422 | 10 | 199 | 14.5 | 19.3 | 0.00 | 6.10 | 0.00 | 87 | 1012.1 |
| 20260507001919 | 10 | 225 | 8.0 | 19.3 | 0.00 | 6.38 | 0.00 | 87 | 1012.2 |
| 20260507001422 | 10 | 220 | 17.7 | 20.9 | 0.00 | 6.53 | 0.00 | 87 | 1012.2 |
| 20260507000922 | 10 | 217 | 4.8 | 17.7 | 0.00 | 6.86 | 0.00 | 87 | 1012.3 |
| 20260507000422 | 10 | 211 | 4.8 | 12.9 | 0.00 | 7.01 | 0.00 | 87 | 1012.3 |
| 20260506235919 | 10 | 207 | 6.4 | 14.5 | 0.00 | 7.04 | 0.00 | 87 | 1012.3 |
| 20260506235422 | 10 | 227 | 9.7 | 14.5 | 0.00 | 7.06 | 0.00 | 87 | 1012.3 |
| 20260506234922 | 10 | 214 | 6.4 | 12.9 | 0.00 | 7.19 | 0.00 | 87 | 1012.3 |
| 20260506234422 | 10 | 191 | 6.4 | 16.1 | 0.00 | 7.24 | 0.00 | 87 | 1012.3 |
| 20260506233922 | 10 | 198 | 12.9 | 12.9 | 0.00 | 7.29 | 0.00 | 87 | 1012.4 |
| 20260506233419 | 10 | 206 | 1.6 | 17.7 | 0.00 | 7.32 | 0.00 | 87 | 1012.4 |
| 20260506232922 | 10 | 120 | 3.2 | 16.1 | 0.00 | 7.32 | 0.00 | 87 | 1012.3 |
| 20260506232422 | 10 | 189 | 1.6 | 16.1 | 0.00 | 7.34 | 0.00 | 87 | 1012.5 |
| 20260506231919 | 10 | 166 | 6.4 | 16.1 | 0.00 | 7.34 | 0.00 | 87 | 1012.5 |
| 20260506231422 | 10 | 109 | 6.4 | 22.5 | 0.00 | 7.34 | 0.00 | 87 | 1012.6 |
| 20260506230922 | 10 | 142 | 0.0 | 16.1 | 0.00 | 7.34 | 0.00 | 87 | 1012.4 |
| 20260506230422 | 10 | 176 | 8.0 | 14.5 | 0.00 | 7.34 | 0.00 | 87 | 1012.4 |
| 20260506225922 | 10 | 199 | 0.0 | 9.7 | 0.00 | 7.34 | 0.00 | 87 | 1012.4 |
| 20260506225419 | 10 | 188 | 11.3 | 14.5 | 0.00 | 7.37 | 0.00 | 87 | 1012.4 |
| 20260506224919 | 10 | 181 | 9.7 | 17.7 | 0.00 | 7.37 | 0.00 | 87 | 1012.4 |
| 20260506224422 | 10 | 171 | 6.4 | 9.7 | 0.00 | 7.37 | 0.00 | 87 | 1012.4 |
| 20260506223922 | 10 | 201 | 4.8 | 12.9 | 0.00 | 7.42 | 0.00 | 87 | 1012.6 |
| 20260506223419 | 10 | 208 | 4.8 | 17.7 | 0.00 | 7.49 | 0.00 | 87 | 1012.6 |
| 20260506222922 | 10 | 133 | 3.2 | 12.9 | 0.00 | 7.59 | 0.00 | 87 | 1012.6 |
| 20260506222422 | 10 | 205 | 6.4 | 19.3 | 0.00 | 7.65 | 0.00 | 87 | 1012.7 |
| 20260506221922 | 10 | 185 | 4.8 | 12.9 | 0.00 | 7.75 | 0.00 | 87 | 1012.7 |
| 20260506221422 | 10 | 197 | 8.0 | 19.3 | 0.00 | 7.80 | 0.00 | 87 | 1012.6 |
| 20260506220922 | 10 | 170 | 19.3 | 19.3 | 0.00 | 7.85 | 0.00 | 87 | 1012.5 |
| 20260506220422 | 10 | 180 | 6.4 | 17.7 | 0.00 | 7.98 | 0.00 | 87 | 1012.5 |
| 20260506215919 | 10 | 164 | 14.5 | 25.7 | 0.00 | 7.98 | 0.00 | 88 | 1012.6 |
| 20260506215422 | 10 | 168 | 9.7 | 16.1 | 0.00 | 8.08 | 0.00 | 88 | 1012.5 |
| 20260506214922 | 10 | 173 | 3.2 | 24.1 | 0.00 | 8.08 | 0.00 | 88 | 1012.5 |
| 20260506214419 | 10 | 192 | 17.7 | 19.3 | 0.00 | 8.13 | 0.00 | 88 | 1012.6 |
| 20260506213922 | 10 | 182 | 3.2 | 14.5 | 0.00 | 8.23 | 0.00 | 88 | 1012.4 |
| 20260506213422 | 10 | 179 | 6.4 | 16.1 | 0.00 | 8.23 | 0.00 | 89 | 1012.4 |
| 20260506212919 | 10 | 243 | 8.0 | 19.3 | 0.00 | 8.26 | 0.00 | 89 | 1012.4 |
| 20260506212422 | 10 | 212 | 11.3 | 17.7 | 0.00 | 8.36 | 0.00 | 89 | 1012.5 |
| 20260506211919 | 10 | 196 | 11.3 | 17.7 | 0.00 | 8.66 | 0.00 | 90 | 1012.6 |
| 20260506211422 | 10 | 213 | 6.4 | 16.1 | 0.00 | 8.94 | 0.00 | 90 | 1012.5 |
| 20260506210922 | 10 | 200 | 9.7 | 17.7 | 0.00 | 9.17 | 0.00 | 90 | 1012.6 |
| 20260506210422 | 10 | 176 | 12.9 | 19.3 | 0.00 | 9.37 | 0.00 | 90 | 1012.6 |
| 20260506205922 | 10 | 140 | 1.6 | 9.7 | 0.00 | 9.53 | 0.00 | 90 | 1012.6 |
| 20260506205422 | 10 | 208 | 6.4 | 12.9 | 0.00 | 9.86 | 0.00 | 91 | 1012.4 |
| 20260506204922 | 10 | 169 | 11.3 | 16.1 | 0.00 | 10.11 | 0.00 | 91 | 1012.4 |
| 20260506204422 | 10 | 201 | 6.4 | 12.9 | 0.00 | 10.13 | 0.00 | 91 | 1012.4 |
| 20260506203922 | 10 | 211 | 4.8 | 6.4 | 0.00 | 10.16 | 0.00 | 91 | 1012.2 |
| 20260506203422 | 10 | 200 | 1.6 | 12.9 | 0.00 | 10.16 | 0.00 | 91 | 1012.4 |
| 20260506202922 | 10 | 203 | 6.4 | 11.3 | 0.00 | 10.16 | 0.00 | 91 | 1012.3 |
| 20260506202419 | 10 | 161 | 9.7 | 14.5 | 0.00 | 10.16 | 0.00 | 91 | 1012.2 |
| 20260506201922 | 10 | 197 | 8.0 | 12.9 | 0.00 | 10.16 | 0.00 | 91 | 1012.1 |
| 20260506201422 | 10 | 148 | 3.2 | 11.3 | 0.00 | 10.16 | 0.00 | 90 | 1012.2 |
| 20260506200922 | 10 | 192 | 9.7 | 16.1 | 0.00 | 10.16 | 0.00 | 90 | 1012.1 |
| 20260506200422 | 10 | 211 | 6.4 | 9.7 | 0.00 | 10.16 | 0.00 | 90 | 1012.0 |
| 20260506195922 | 10 | 177 | 6.4 | 11.3 | 0.00 | 10.16 | 0.00 | 89 | 1012.0 |
| 20260506195422 | 10 | 176 | 3.2 | 9.7 | 0.00 | 10.16 | 0.00 | 89 | 1012.0 |
| 20260506194922 | 10 | 211 | 9.7 | 11.3 | 0.00 | 10.16 | 0.00 | 88 | 1011.9 |
| 20260506194422 | 10 | 193 | 6.4 | 14.5 | 0.00 | 10.16 | 0.00 | 88 | 1011.9 |
| 20260506193923 | 10 | 184 | 6.4 | 9.7 | 0.00 | 10.16 | 0.00 | 87 | 1011.8 |
| 20260506193423 | 10 | 215 | 6.4 | 12.9 | 0.00 | 10.16 | 0.00 | 87 | 1011.5 |
| 20260506192922 | 10 | 196 | 8.0 | 14.5 | 0.00 | 10.16 | 0.00 | 86 | 1011.5 |
| 20260506192422 | 11 | 211 | 8.0 | 11.3 | 0.00 | 10.16 | 0.00 | 85 | 1011.4 |
| 20260506191923 | 11 | 178 | 4.8 | 11.3 | 0.00 | 10.16 | 0.00 | 84 | 1011.4 |
| 20260506191422 | 11 | 177 | 8.0 | 14.5 | 0.00 | 10.16 | 0.00 | 84 | 1011.4 |
| 20260506190922 | 11 | 202 | 9.7 | 14.5 | 0.00 | 10.16 | 0.00 | 83 | 1011.3 |
| 20260506190422 | 11 | 196 | 4.8 | 16.1 | 0.00 | 10.16 | 0.00 | 83 | 1011.1 |
| 20260506185922 | 11 | 171 | 11.3 | 17.7 | 0.00 | 10.16 | 0.00 | 82 | 1011.2 |
| 20260506185419 | 11 | 198 | 12.9 | 16.1 | 0.00 | 10.16 | 0.00 | 82 | 1011.1 |
| 20260506184922 | 11 | 206 | 4.8 | 16.1 | 0.00 | 10.16 | 0.00 | 81 | 1010.9 |
| 20260506184422 | 11 | 205 | 6.4 | 19.3 | 0.00 | 10.16 | 0.00 | 80 | 1010.9 |
| 20260506183922 | 11 | 204 | 12.9 | 16.1 | 0.00 | 10.16 | 0.00 | 80 | 1010.8 |
| 20260506183422 | 11 | 175 | 9.7 | 14.5 | 0.00 | 10.16 | 0.00 | 78 | 1010.8 |
| 20260506182922 | 11 | 196 | 3.2 | 17.7 | 0.00 | 10.16 | 0.00 | 78 | 1010.8 |
| 20260506182422 | 11 | 192 | 8.0 | 14.5 | 0.00 | 10.16 | 0.00 | 76 | 1010.8 |
| 20260506181922 | 11 | 183 | 3.2 | 14.5 | 0.00 | 10.16 | 0.00 | 76 | 1010.8 |
| 20260506181422 | 11 | 220 | 8.0 | 14.5 | 0.00 | 10.16 | 0.00 | 75 | 1010.6 |
| 20260506180923 | 12 | 176 | 8.0 | 19.3 | 0.00 | 10.16 | 0.00 | 75 | 1010.7 |
| 20260506180422 | 12 | 198 | 6.4 | 14.5 | 0.00 | 10.19 | 0.00 | 75 | 1010.6 |
| 20260506175922 | 12 | 209 | 6.4 | 12.9 | 0.00 | 10.19 | 0.00 | 75 | 1010.7 |
| 20260506175422 | 12 | 202 | 14.5 | 16.1 | 0.00 | 10.19 | 0.00 | 74 | 1010.5 |
| 20260506174922 | 12 | 186 | 6.4 | 16.1 | 0.00 | 10.19 | 0.00 | 73 | 1010.7 |
| 20260506174422 | 12 | 210 | 6.4 | 22.5 | 0.00 | 10.19 | 0.00 | 72 | 1010.5 |
| 20260506173918 | 12 | 219 | 11.3 | 27.4 | 0.00 | 10.21 | 0.00 | 73 | 1010.5 |
| 20260506173421 | 12 | 221 | 12.9 | 20.9 | 0.00 | 10.21 | 0.00 | 73 | 1010.5 |
| 20260506172921 | 12 | 189 | 12.9 | 20.9 | 0.00 | 10.21 | 0.00 | 73 | 1010.5 |
| 20260506172418 | 12 | 215 | 12.9 | 19.3 | 0.00 | 10.21 | 0.00 | 72 | 1010.5 |
| 20260506171922 | 12 | 143 | 3.2 | 19.3 | 0.00 | 10.21 | 0.00 | 71 | 1010.6 |
| 20260506171421 | 12 | 198 | 6.4 | 17.7 | 0.00 | 10.21 | 0.00 | 70 | 1010.5 |
| 20260506170921 | 12 | 153 | 11.3 | 14.5 | 0.00 | 10.21 | 0.00 | 68 | 1010.4 |
| 20260506170421 | 13 | 105 | 4.8 | 20.9 | 0.00 | 10.21 | 0.00 | 69 | 1010.3 |
| 20260506165921 | 13 | 182 | 12.9 | 17.7 | 0.00 | 10.21 | 0.00 | 68 | 1010.3 |
| 20260506165421 | 13 | 102 | 12.9 | 20.9 | 0.00 | 10.21 | 0.00 | 68 | 1010.3 |
| 20260506164921 | 13 | 201 | 12.9 | 20.9 | 0.00 | 10.21 | 0.00 | 69 | 1010.3 |
| 20260506164421 | 13 | 191 | 16.1 | 25.7 | 0.00 | 10.21 | 0.00 | 66 | 1010.1 |
| 20260506163921 | 14 | 190 | 8.0 | 19.3 | 0.00 | 10.21 | 0.00 | 70 | 1010.2 |
| 20260506163421 | 14 | 194 | 8.0 | 20.9 | 0.00 | 10.21 | 0.00 | 69 | 1010.2 |
| 20260506162921 | 14 | 196 | 8.0 | 16.1 | 0.00 | 10.21 | 0.00 | 69 | 1010.2 |
| 20260506162421 | 14 | 167 | 16.1 | 25.7 | 0.00 | 10.21 | 0.00 | 67 | 1010.2 |
| 20260506161921 | 14 | 198 | 6.4 | 29.0 | 0.00 | 10.21 | 0.00 | 68 | 1010.3 |
| 20260506161421 | 14 | 211 | 25.7 | 33.8 | 0.00 | 10.21 | 0.00 | 67 | 1010.2 |
| 20260506160921 | 14 | 213 | 14.5 | 29.0 | 0.00 | 10.21 | 0.00 | 69 | 1010.4 |
| 20260506160418 | 14 | 175 | 16.1 | 27.4 | 0.00 | 10.21 | 0.00 | 73 | 1010.2 |
| 20260506155921 | 14 | 177 | 6.4 | 24.1 | 0.00 | 10.21 | 0.00 | 72 | 1010.1 |
| 20260506155418 | 14 | 212 | 14.5 | 27.4 | 0.00 | 10.21 | 0.00 | 75 | 1010.3 |
| 20260506154921 | 15 | 180 | 14.5 | 25.7 | 0.00 | 10.21 | 0.00 | 75 | 1010.0 |
| 20260506154421 | 15 | 190 | 14.5 | 29.0 | 0.00 | 10.21 | 0.00 | 76 | 1010.1 |
| 20260506153921 | 14 | 169 | 0.0 | 19.3 | 0.00 | 10.21 | 0.00 | 76 | 1010.0 |
| 20260506153421 | 14 | 163 | 8.0 | 24.1 | 0.00 | 10.21 | 0.00 | 77 | 1009.9 |
| 20260506152921 | 15 | 120 | 3.2 | 24.1 | 0.00 | 10.21 | 0.00 | 76 | 1009.8 |
| 20260506152421 | 15 | 171 | 8.0 | 20.9 | 0.00 | 10.21 | 0.00 | 74 | 1009.9 |
| 20260506151921 | 15 | 155 | 11.3 | 22.5 | 0.00 | 10.21 | 0.00 | 74 | 1009.7 |
| 20260506151422 | 15 | 207 | 4.8 | 29.0 | 0.00 | 10.21 | 0.00 | 75 | 1009.6 |
| 20260506150921 | 14 | 148 | 9.7 | 17.7 | 0.00 | 10.21 | 0.00 | 77 | 1009.7 |
| 20260506150421 | 14 | 213 | 6.4 | 24.1 | 0.00 | 10.21 | 0.00 | 77 | 1009.8 |
| 20260506145921 | 14 | 297 | 4.8 | 19.3 | 0.00 | 10.21 | 0.00 | 79 | 1009.9 |
| 20260506145421 | 14 | 186 | 16.1 | 19.3 | 0.00 | 10.21 | 0.00 | 78 | 1009.9 |
| 20260506144921 | 14 | 202 | 4.8 | 25.7 | 0.00 | 10.21 | 0.00 | 76 | 1009.9 |
| 20260506144421 | 15 | 205 | 12.9 | 27.4 | 0.00 | 10.21 | 0.00 | 78 | 1009.6 |
| 20260506143921 | 14 | 220 | 11.3 | 38.6 | 0.00 | 10.21 | 0.00 | 76 | 1009.9 |
| 20260506143421 | 15 | 194 | 25.7 | 37.0 | 0.00 | 10.21 | 0.00 | 79 | 1009.7 |
| 20260506142921 | 15 | 199 | 25.7 | 27.4 | 0.00 | 10.21 | 0.00 | 79 | 1010.0 |
| 20260506142421 | 15 | 219 | 12.9 | 27.4 | 0.00 | 10.21 | 0.00 | 79 | 1009.7 |
| 20260506141921 | 15 | 174 | 11.3 | 27.4 | 0.00 | 10.21 | 0.00 | 80 | 1009.7 |
| 20260506141418 | 15 | 200 | 11.3 | 27.4 | 0.00 | 10.21 | 0.00 | 83 | 1009.6 |
| 20260506140921 | 15 | 192 | 9.7 | 25.7 | 0.00 | 10.21 | 0.00 | 82 | 1009.5 |
| 20260506140421 | 15 | 195 | 11.3 | 19.3 | 0.00 | 10.21 | 0.00 | 82 | 1009.8 |
| 20260506135921 | 14 | 172 | 14.5 | 25.7 | 0.00 | 10.21 | 0.00 | 81 | 1009.8 |
| 20260506135418 | 14 | 183 | 17.7 | 27.4 | 0.00 | 10.21 | 0.00 | 79 | 1009.8 |
| 20260506134922 | 14 | 181 | 24.1 | 32.2 | 0.00 | 10.21 | 0.00 | 79 | 1009.8 |
| 20260506134421 | 13 | 170 | 19.3 | 32.2 | 0.05 | 10.21 | 0.00 | 81 | 1009.7 |
| 20260506133918 | 13 | 226 | 11.3 | 37.0 | 0.08 | 10.21 | 0.00 | 83 | 1009.7 |
| 20260506133421 | 13 | 167 | 16.1 | 30.6 | 0.08 | 10.21 | 0.00 | 86 | 1009.8 |
| 20260506132921 | 13 | 188 | 6.4 | 20.9 | 0.08 | 10.21 | 0.00 | 87 | 1009.7 |
| 20260506132421 | 13 | 213 | 4.8 | 24.1 | 0.08 | 10.21 | 0.00 | 88 | 1010.0 |
| 20260506131921 | 13 | 214 | 16.1 | 27.4 | 0.08 | 10.21 | 0.00 | 89 | 1009.9 |
| 20260506131421 | 13 | 207 | 24.1 | 33.8 | 0.08 | 10.21 | 0.00 | 90 | 1009.9 |
| 20260506130918 | 13 | 209 | 11.3 | 22.5 | 0.08 | 10.21 | 0.00 | 91 | 1010.0 |
| 20260506130421 | 12 | 161 | 19.3 | 27.4 | 0.08 | 10.21 | 0.00 | 90 | 1010.2 |
| 20260506125921 | 13 | 200 | 9.7 | 24.1 | 0.08 | 10.21 | 0.00 | 90 | 1010.3 |
| 20260506125421 | 13 | 250 | 11.3 | 22.5 | 0.08 | 10.19 | 0.00 | 90 | 1010.2 |
| 20260506124921 | 13 | 195 | 16.1 | 27.4 | 0.08 | 10.19 | 0.00 | 91 | 1010.4 |
| 20260506124421 | 13 | 213 | 16.1 | 27.4 | 0.03 | 10.13 | 0.00 | 91 | 1010.1 |
| 20260506123921 | 13 | 228 | 22.5 | 29.0 | 0.00 | 10.11 | 0.00 | 91 | 1009.7 |
| 20260506123421 | 13 | 132 | 14.5 | 24.1 | 0.00 | 10.13 | 0.00 | 91 | 1009.6 |
| 20260506122921 | 13 | 153 | 8.0 | 19.3 | 0.00 | 10.13 | 0.00 | 91 | 1009.4 |
| 20260506122421 | 13 | 188 | 8.0 | 22.5 | 0.00 | 10.19 | 0.00 | 91 | 1009.5 |
| 20260506121921 | 13 | 103 | 11.3 | 37.0 | 0.00 | 10.21 | 0.00 | 91 | 1009.6 |
| 20260506121418 | 13 | 178 | 6.4 | 20.9 | 0.00 | 10.21 | 0.00 | 91 | 1009.5 |
| 20260506120921 | 13 | 246 | 6.4 | 32.2 | 0.00 | 10.24 | 0.00 | 91 | 1009.7 |
| 20260506120421 | 13 | 201 | 11.3 | 24.1 | 0.00 | 10.26 | 0.00 | 91 | 1009.6 |
| 20260506115921 | 13 | 153 | 6.4 | 29.0 | 0.00 | 10.29 | 0.00 | 91 | 1009.5 |
| 20260506115418 | 13 | 184 | 14.5 | 37.0 | 0.00 | 10.31 | 0.00 | 90 | 1009.6 |
| 20260506114918 | 13 | 142 | 19.3 | 22.5 | 0.00 | 10.34 | 0.00 | 89 | 1009.6 |
| 20260506114421 | 12 | 202 | 16.1 | 33.8 | 0.00 | 10.36 | 0.00 | 88 | 1009.6 |
| 20260506113921 | 12 | 151 | 14.5 | 30.6 | 0.00 | 10.41 | 0.00 | 87 | 1009.7 |
| 20260506113421 | 12 | 203 | 17.7 | 40.2 | 0.00 | 10.44 | 0.00 | 87 | 1009.8 |
| 20260506112921 | 12 | 229 | 4.8 | 24.1 | 0.00 | 10.49 | 0.00 | 86 | 1009.5 |
| 20260506112421 | 12 | 228 | 11.3 | 29.0 | 0.00 | 10.52 | 0.00 | 86 | 1009.6 |
| 20260506111918 | 12 | 179 | 11.3 | 33.8 | 0.00 | 10.59 | 0.00 | 86 | 1009.7 |
| 20260506111421 | 12 | 151 | 22.5 | 25.7 | 0.00 | 10.62 | 0.00 | 86 | 1009.6 |
| 20260506110918 | 12 | 201 | 4.8 | 17.7 | 0.00 | 10.72 | 0.00 | 86 | 1009.5 |
| 20260506110421 | 12 | 213 | 8.0 | 22.5 | 0.00 | 10.74 | 0.00 | 86 | 1009.8 |
| 20260506105921 | 12 | 149 | 1.6 | 17.7 | 0.00 | 10.79 | 0.00 | 86 | 1009.6 |
| 20260506105421 | 12 | 219 | 8.0 | 45.1 | 0.00 | 10.85 | 0.00 | 86 | 1009.6 |
| 20260506104921 | 12 | 232 | 16.1 | 27.4 | 0.00 | 10.90 | 0.00 | 86 | 1009.8 |
| 20260506104421 | 12 | 134 | 12.9 | 22.5 | 0.00 | 10.90 | 0.00 | 86 | 1009.8 |
| 20260506103921 | 12 | 188 | 12.9 | 20.9 | 0.00 | 10.92 | 0.00 | 85 | 1010.0 |
| 20260506103421 | 12 | 159 | 11.3 | 40.2 | 0.00 | 11.00 | 0.00 | 86 | 1010.1 |
| 20260506102921 | 12 | 227 | 14.5 | 35.4 | 0.00 | 11.00 | 0.00 | 86 | 1009.9 |
| 20260506102421 | 12 | 224 | 6.4 | 24.1 | 0.00 | 11.02 | 0.00 | 86 | 1010.0 |
| 20260506101921 | 11 | 212 | 3.2 | 19.3 | 0.00 | 11.05 | 0.00 | 86 | 1010.0 |
| 20260506101421 | 11 | 132 | 14.5 | 29.0 | 0.00 | 11.05 | 0.00 | 86 | 1010.1 |
| 20260506100921 | 11 | 172 | 8.0 | 24.1 | 0.00 | 11.05 | 0.00 | 86 | 1009.9 |
| 20260506100418 | 11 | 155 | 12.9 | 25.7 | 0.00 | 11.05 | 0.00 | 86 | 1010.0 |
| 20260506095921 | 11 | 205 | 8.0 | 27.4 | 0.00 | 11.07 | 0.00 | 86 | 1010.1 |
| 20260506095421 | 11 | 153 | 6.4 | 27.4 | 0.00 | 11.07 | 0.00 | 86 | 1010.1 |
| 20260506094921 | 11 | 227 | 4.8 | 25.7 | 0.00 | 11.07 | 0.00 | 85 | 1010.0 |
| 20260506094421 | 12 | 153 | 4.8 | 25.7 | 0.00 | 11.07 | 0.00 | 85 | 1010.0 |
| 20260506093921 | 11 | 170 | 17.7 | 32.2 | 0.00 | 11.10 | 0.00 | 85 | 1010.0 |
| 20260506093421 | 11 | 132 | 17.7 | 25.7 | 0.00 | 11.10 | 0.00 | 85 | 1009.9 |
| 20260506092921 | 11 | 202 | 24.1 | 33.8 | 0.00 | 11.18 | 0.00 | 85 | 1009.8 |
| 20260506092421 | 12 | 220 | 8.0 | 29.0 | 0.00 | 11.30 | 0.00 | 85 | 1009.8 |
| 20260506091921 | 12 | 134 | 8.0 | 27.4 | 0.00 | 11.38 | 0.00 | 85 | 1009.7 |
| 20260506091421 | 12 | 200 | 14.5 | 24.1 | 0.00 | 11.40 | 0.00 | 85 | 1009.7 |
| 20260506090921 | 11 | 173 | 12.9 | 30.6 | 0.00 | 11.43 | 0.00 | 85 | 1009.9 |
| 20260506090421 | 11 | 190 | 3.2 | 29.0 | 0.03 | 11.46 | 0.00 | 85 | 1009.8 |
| 20260506085921 | 11 | 217 | 8.0 | 22.5 | 0.08 | 11.46 | 0.00 | 85 | 1009.8 |
| 20260506085421 | 11 | 226 | 4.8 | 22.5 | 0.08 | 11.46 | 0.00 | 85 | 1009.9 |
| 20260506084918 | 11 | 186 | 16.1 | 30.6 | 0.10 | 11.46 | 0.00 | 85 | 1009.9 |
| 20260506084421 | 11 | 192 | 16.1 | 27.4 | 0.15 | 11.46 | 0.00 | 86 | 1009.9 |
| 20260506083921 | 11 | 184 | 25.7 | 30.6 | 0.18 | 11.46 | 0.00 | 85 | 1009.9 |
| 20260506083421 | 11 | 172 | 14.5 | 40.2 | 0.18 | 11.46 | 0.00 | 85 | 1010.0 |
| 20260506082921 | 11 | 91 | 12.9 | 37.0 | 0.18 | 11.48 | 0.00 | 85 | 1009.6 |
| 20260506082421 | 12 | 154 | 16.1 | 29.0 | 0.20 | 11.71 | 0.00 | 86 | 1009.8 |
| 20260506081921 | 12 | 201 | 16.1 | 29.0 | 0.25 | 11.89 | 0.00 | 86 | 1009.8 |
| 20260506081421 | 11 | 171 | 12.9 | 32.2 | 0.28 | 11.94 | 0.00 | 85 | 1009.8 |
| 20260506080921 | 11 | 175 | 14.5 | 29.0 | 0.36 | 11.99 | 0.00 | 85 | 1009.7 |
| 20260506080418 | 11 | 191 | 12.9 | 32.2 | 0.41 | 11.99 | 0.00 | 85 | 1009.7 |
| 20260506073420 | 11 | 224 | 14.5 | 19.3 | 0.61 | 11.84 | 0.00 | 86 | 1009.6 |
| 20260506072920 | 11 | 205 | 12.9 | 17.7 | 0.64 | 11.84 | 0.00 | 86 | 1009.6 |
| 20260506072420 | 11 | 169 | 3.2 | 16.1 | 0.64 | 11.81 | 0.00 | 86 | 1009.6 |
| 20260506071920 | 11 | 185 | 8.0 | 16.1 | 0.64 | 11.76 | 0.00 | 86 | 1009.6 |
| 20260506071420 | 11 | 196 | 6.4 | 19.3 | 0.58 | 11.73 | 0.00 | 86 | 1009.7 |
| 20260506070917 | 11 | 207 | 9.7 | 20.9 | 0.56 | 11.71 | 0.00 | 86 | 1009.7 |
| 20260506070420 | 11 | 211 | 3.2 | 16.1 | 0.56 | 11.71 | 0.00 | 86 | 1009.7 |
| 20260506062420 | 11 | 152 | 17.7 | 25.7 | 0.61 | 11.66 | 0.00 | 86 | 1009.7 |
| 20260506061920 | 11 | 186 | 4.8 | 20.9 | 0.64 | 11.63 | 0.00 | 86 | 1009.9 |
| 20260506061420 | 11 | 107 | 4.8 | 9.7 | 0.64 | 11.63 | 0.00 | 86 | 1009.8 |
| 20260506060920 | 11 | 159 | 3.2 | 19.3 | 0.61 | 11.61 | 0.00 | 86 | 1010.0 |
| 20260506060417 | 11 | 132 | 6.4 | 19.3 | 0.56 | 11.66 | 0.00 | 86 | 1010.1 |
| 20260506050920 | 10 | 188 | 1.6 | 8.0 | 0.36 | 11.73 | 0.00 | 86 | 1010.2 |
| 20260506050417 | 10 | 193 | 8.0 | 8.0 | 0.38 | 11.71 | 0.00 | 86 | 1010.2 |
| 20260506044920 | 10 | 196 | 0.0 | 4.8 | 0.41 | 11.66 | 0.00 | 87 | 1010.4 |